Time,TemperatureF,DewpointF,PressureIn,WindDirection,WindDirectionDegrees,WindSpeedMPH,WindSpeedGustMPH,Humidity,HourlyPrecipIn,Conditions,Clouds,dailyrainin,SoftwareType,DateUTC
2013-05-05 00:00:00,52.0,36.8,30.16,ENE,74,0.0,2.0,56,0.00,OVC,OVC,0.00,WeatherDisplay:10.31,2013-05-05 04:00:00,
2013-05-05 00:05:00,51.9,37.2,30.16,ENE,68,2.0,3.0,57,0.00,OVC,OVC,0.00,WeatherDisplay:10.31,2013-05-05 04:05:00,
2013-05-05 00:10:00,51.9,37.1,30.16,ENE,68,1.0,3.0,57,0.00,OVC,OVC,0.00,WeatherDisplay:10.31,2013-05-05 04:10:00,
2013-05-05 00:20:00,51.4,37.5,30.17,ENE,68,1.0,3.0,59,0.00,OVC,OVC,0.00,WeatherDisplay:10.31,2013-05-05 04:20:00,
2013-05-05 00:30:00,51.1,37.7,30.17,ENE,68,1.0,2.0,60,0.00,OVC,OVC,0.00,WeatherDisplay:10.31,2013-05-05 04:30:00,
2013-05-05 00:40:00,50.8,37.8,30.17,East,89,2.0,6.0,61,0.00,OVC,OVC,0.00,WeatherDisplay:10.31,2013-05-05 04:40:00,
2013-05-05 00:50:00,50.4,37.9,30.17,ENE,70,1.0,3.0,62,0.00,OVC,OVC,0.00,WeatherDisplay:10.31,2013-05-05 04:50:00,
2013-05-05 00:55:00,50.2,38.1,30.16,ENE,59,1.0,3.0,63,0.00,OVC,OVC,0.00,WeatherDisplay:10.31,2013-05-05 04:55:00,
2013-05-05 01:00:00,50.2,38.1,30.16,ENE,68,1.0,2.0,63,0.00,OVC,OVC,0.00,WeatherDisplay:10.31,2013-05-05 05:00:00,
2013-05-05 01:05:00,50.1,38.4,30.16,ENE,68,1.0,3.0,64,0.00,OVC,OVC,0.00,WeatherDisplay:10.31,2013-05-05 05:05:00,
2013-05-05 01:10:00,49.9,38.2,30.17,ENE,68,0.0,3.0,64,0.00,OVC,OVC,0.00,WeatherDisplay:10.31,2013-05-05 05:10:00,
2013-05-05 01:20:00,49.8,38.5,30.16,ENE,64,1.0,3.0,65,0.00,OVC,OVC,0.00,WeatherDisplay:10.31,2013-05-05 05:20:00,
2013-05-05 01:25:00,49.8,38.9,30.16,NE,52,1.0,3.0,66,0.00,OVC,OVC,0.00,WeatherDisplay:10.31,2013-05-05 05:25:00,
2013-05-05 01:30:00,49.6,38.7,30.16,NE,45,2.0,3.0,66,0.00,OVC,OVC,0.00,WeatherDisplay:10.31,2013-05-05 05:30:00,
2013-05-05 01:40:00,49.4,38.5,30.16,ENE,66,3.0,7.0,66,0.00,OVC,OVC,0.00,WeatherDisplay:10.31,2013-05-05 05:40:00,
2013-05-05 01:50:00,49.0,38.2,30.16,ENE,63,2.0,5.0,66,0.00,OVC,OVC,0.00,WeatherDisplay:10.31,2013-05-05 05:50:00,
2013-05-05 02:00:00,48.8,38.3,30.15,ENE,64,1.0,3.0,67,0.00,OVC,OVC,0.00,WeatherDisplay:10.31,2013-05-05 06:00:00,
2013-05-05 02:05:00,48.6,38.5,30.15,ENE,64,2.0,3.0,68,0.00,OVC,OVC,0.00,WeatherDisplay:10.31,2013-05-05 06:05:00,
2013-05-05 02:10:00,48.4,38.7,30.15,ENE,65,2.0,6.0,69,0.00,OVC,OVC,0.00,WeatherDisplay:10.31,2013-05-05 06:10:00,
2013-05-05 02:20:00,48.0,38.7,30.15,ENE,59,1.0,6.0,70,0.00,OVC,OVC,0.00,WeatherDisplay:10.31,2013-05-05 06:20:00,
2013-05-05 02:30:00,47.6,38.7,30.15,NE,51,2.0,3.0,71,0.00,OVC,OVC,0.00,WeatherDisplay:10.31,2013-05-05 06:30:00,
2013-05-05 02:40:00,47.3,39.1,30.15,NE,54,2.0,5.0,73,0.00,OVC,OVC,0.00,WeatherDisplay:10.31,2013-05-05 06:40:00,
2013-05-05 02:50:00,47.0,39.1,30.15,ENE,61,1.0,3.0,74,0.00,OVC,OVC,0.00,WeatherDisplay:10.31,2013-05-05 06:50:00,
2013-05-05 03:00:00,46.8,39.3,30.15,ENE,57,2.0,3.0,75,0.00,OVC,OVC,0.00,WeatherDisplay:10.31,2013-05-05 07:00:00,
2013-05-05 03:05:00,46.7,39.2,30.15,NE,52,2.0,5.0,75,0.00,OVC,OVC,0.00,WeatherDisplay:10.31,2013-05-05 07:05:00,
2013-05-05 03:10:00,46.7,39.5,30.15,NE,52,3.0,9.0,76,0.00,OVC,OVC,0.00,WeatherDisplay:10.31,2013-05-05 07:10:00,
2013-05-05 03:20:00,46.5,39.0,30.15,NE,50,3.0,10.0,75,0.00,OVC,OVC,0.00,WeatherDisplay:10.31,2013-05-05 07:20:00,
2013-05-05 03:30:00,46.4,38.9,30.15,NE,53,2.0,9.0,75,0.00,OVC,OVC,0.00,WeatherDisplay:10.31,2013-05-05 07:30:00,
2013-05-05 03:40:00,46.4,38.9,30.15,NE,55,2.0,10.0,75,0.00,OVC,OVC,0.00,WeatherDisplay:10.31,2013-05-05 07:40:00,
2013-05-05 03:50:00,46.4,38.9,30.15,NE,56,5.0,7.0,75,0.00,OVC,OVC,0.00,WeatherDisplay:10.31,2013-05-05 07:50:00,
2013-05-05 04:00:00,46.4,38.9,30.15,NE,54,3.0,7.0,75,0.00,OVC,OVC,0.00,WeatherDisplay:10.31,2013-05-05 08:00:00,
2013-05-05 04:05:00,46.4,38.9,30.15,NE,54,3.0,10.0,75,0.00,OVC,OVC,0.00,WeatherDisplay:10.31,2013-05-05 08:05:00,
2013-05-05 04:10:00,46.4,38.9,30.15,NE,50,3.0,12.0,75,0.00,OVC,OVC,0.00,WeatherDisplay:10.31,2013-05-05 08:10:00,
2013-05-05 04:20:00,46.4,38.9,30.15,NE,47,2.0,5.0,75,0.00,OVC,OVC,0.00,WeatherDisplay:10.31,2013-05-05 08:20:00,
2013-05-05 04:30:00,46.2,38.7,30.15,NE,50,2.0,7.0,75,0.00,OVC,OVC,0.00,WeatherDisplay:10.31,2013-05-05 08:30:00,
2013-05-05 04:40:00,46.1,38.3,30.15,NE,49,3.0,10.0,74,0.00,OVC,OVC,0.00,WeatherDisplay:10.31,2013-05-05 08:40:00,
2013-05-05 04:50:00,46.0,38.2,30.15,NE,53,3.0,7.0,74,0.00,OVC,OVC,0.00,WeatherDisplay:10.31,2013-05-05 08:50:00,
2013-05-05 05:00:00,45.8,37.6,30.15,NE,52,7.0,12.0,73,0.00,OVC,OVC,0.00,WeatherDisplay:10.31,2013-05-05 09:00:00,
2013-05-05 05:10:00,45.7,37.9,30.15,NE,44,6.0,12.0,74,0.00,OVC,OVC,0.00,WeatherDisplay:10.31,2013-05-05 09:10:00,
2013-05-05 05:20:00,45.7,37.9,30.15,NE,54,3.0,9.0,74,0.00,OVC,OVC,0.00,WeatherDisplay:10.31,2013-05-05 09:20:00,
2013-05-05 05:30:00,45.5,38.0,30.15,NE,51,1.0,7.0,75,0.00,OVC,OVC,0.00,WeatherDisplay:10.31,2013-05-05 09:30:00,
2013-05-05 05:40:00,45.4,37.9,30.15,NE,45,2.0,5.0,75,0.00,OVC,OVC,0.00,WeatherDisplay:10.31,2013-05-05 09:40:00,
2013-05-05 05:50:00,45.2,38.1,30.15,NE,50,1.0,6.0,76,0.00,OVC,OVC,0.00,WeatherDisplay:10.31,2013-05-05 09:50:00,
2013-05-05 06:00:00,45.1,38.0,30.15,NE,45,2.0,3.0,76,0.00,OVC,OVC,0.00,WeatherDisplay:10.31,2013-05-05 10:00:00,
2013-05-05 06:05:00,45.1,38.3,30.15,NE,55,2.0,3.0,77,0.00,OVC,OVC,0.00,WeatherDisplay:10.31,2013-05-05 10:05:00,
2013-05-05 06:10:00,45.1,38.3,30.16,ENE,65,1.0,3.0,77,0.00,CLR,CLR,0.00,WeatherDisplay:10.31,2013-05-05 10:10:00,
2013-05-05 06:20:00,45.2,38.4,30.16,NE,49,1.0,3.0,77,0.00,BKN,BKN,0.00,WeatherDisplay:10.31,2013-05-05 10:20:00,
2013-05-05 06:30:00,45.4,38.6,30.16,NE,45,1.0,3.0,77,0.00,OVC,OVC,0.00,WeatherDisplay:10.31,2013-05-05 10:30:00,
2013-05-05 06:40:00,45.7,38.9,30.16,NE,39,1.0,6.0,77,0.00,OVC,OVC,0.00,WeatherDisplay:10.31,2013-05-05 10:40:00,
2013-05-05 06:50:00,46.1,38.9,30.16,NE,44,3.0,6.0,76,0.00,BKN,BKN,0.00,WeatherDisplay:10.31,2013-05-05 10:50:00,
2013-05-05 07:00:00,46.4,38.9,30.16,NNE,29,3.0,10.0,75,0.00,BKN,BKN,0.00,WeatherDisplay:10.31,2013-05-05 11:00:00,
2013-05-05 07:05:00,46.4,38.2,30.16,NE,40,3.0,12.0,73,0.00,BKN,BKN,0.00,WeatherDisplay:10.31,2013-05-05 11:05:00,
2013-05-05 07:10:00,46.5,38.0,30.16,NE,36,2.0,7.0,72,0.00,BKN,BKN,0.00,WeatherDisplay:10.31,2013-05-05 11:10:00,
2013-05-05 07:20:00,46.8,37.9,30.16,NE,34,3.0,10.0,71,0.00,BKN,BKN,0.00,WeatherDisplay:10.31,2013-05-05 11:20:00,
2013-05-05 07:30:00,47.1,37.8,30.16,NE,51,2.0,10.0,70,0.00,BKN,BKN,0.00,WeatherDisplay:10.31,2013-05-05 11:30:00,
2013-05-05 07:40:00,47.3,37.6,30.16,NE,42,7.0,12.0,69,0.00,BKN,BKN,0.00,WeatherDisplay:10.31,2013-05-05 11:40:00,
2013-05-05 07:50:00,47.4,37.4,30.17,NE,46,3.0,10.0,68,0.00,SCT,SCT,0.00,WeatherDisplay:10.31,2013-05-05 11:50:00,
2013-05-05 08:00:00,47.7,36.9,30.17,NE,43,5.0,13.0,66,0.00,SCT,SCT,0.00,WeatherDisplay:10.31,2013-05-05 12:00:00,
2013-05-05 08:05:00,47.7,36.9,30.18,NE,47,3.0,12.0,66,0.00,SCT,SCT,0.00,WeatherDisplay:10.31,2013-05-05 12:05:00,
2013-05-05 08:10:00,48.0,37.2,30.18,NE,50,3.0,3.0,66,0.00,SCT,SCT,0.00,WeatherDisplay:10.31,2013-05-05 12:10:00,
2013-05-05 08:20:00,48.5,37.3,30.18,ENE,57,5.0,12.0,65,0.00,CLR,CLR,0.00,WeatherDisplay:10.31,2013-05-05 12:20:00,
2013-05-05 08:30:00,48.6,37.0,30.18,ENE,63,3.0,12.0,64,0.00,BKN,BKN,0.00,WeatherDisplay:10.31,2013-05-05 12:30:00,
2013-05-05 08:40:00,48.8,36.8,30.18,NE,46,5.0,9.0,63,0.00,BKN,BKN,0.00,WeatherDisplay:10.31,2013-05-05 12:40:00,
2013-05-05 08:50:00,48.8,36.8,30.19,NE,43,6.0,12.0,63,0.00,BKN,BKN,0.00,WeatherDisplay:10.31,2013-05-05 12:50:00,
2013-05-05 09:00:00,49.1,37.0,30.19,NE,49,1.0,6.0,63,0.00,BKN,BKN,0.00,WeatherDisplay:10.31,2013-05-05 13:00:00,
2013-05-05 09:05:00,49.2,36.7,30.19,NE,49,5.0,12.0,62,0.00,BKN,BKN,0.00,WeatherDisplay:10.31,2013-05-05 13:05:00,
2013-05-05 09:10:00,49.4,36.5,30.19,NE,48,3.0,8.0,61,0.00,SCT,SCT,0.00,WeatherDisplay:10.31,2013-05-05 13:10:00,
2013-05-05 09:20:00,49.9,37.0,30.18,NE,50,3.0,7.0,61,0.00,SCT,SCT,0.00,WeatherDisplay:10.31,2013-05-05 13:20:00,
2013-05-05 09:30:00,50.5,37.5,30.18,ENE,61,5.0,10.0,61,0.00,SCT,SCT,0.00,WeatherDisplay:10.31,2013-05-05 13:30:00,
2013-05-05 09:40:00,51.2,36.4,30.18,NE,47,3.0,12.0,57,0.00,BKN,BKN,0.00,WeatherDisplay:10.31,2013-05-05 13:40:00,
2013-05-05 09:50:00,51.6,37.3,30.18,NE,43,2.0,8.0,58,0.00,SCT,SCT,0.00,WeatherDisplay:10.31,2013-05-05 13:50:00,
2013-05-05 10:00:00,51.9,37.1,30.18,NE,50,5.0,12.0,57,0.00,SCT,SCT,0.00,WeatherDisplay:10.31,2013-05-05 14:00:00,
2013-05-05 10:05:00,52.0,37.2,30.18,NE,54,5.0,8.0,57,0.00,BKN,BKN,0.00,WeatherDisplay:10.31,2013-05-05 14:05:00,
2013-05-05 10:10:00,52.2,37.9,30.18,NE,51,6.0,9.0,58,0.00,BKN,BKN,0.00,WeatherDisplay:10.31,2013-05-05 14:10:00,
2013-05-05 10:20:00,52.5,37.7,30.18,NE,37,3.0,9.0,57,0.00,SCT,SCT,0.00,WeatherDisplay:10.31,2013-05-05 14:20:00,
2013-05-05 10:30:00,52.9,37.6,30.18,NE,45,5.0,7.0,56,0.00,SCT,SCT,0.00,WeatherDisplay:10.31,2013-05-05 14:30:00,
2013-05-05 10:40:00,53.4,37.2,30.18,NE,39,6.0,9.0,54,0.00,CLR,CLR,0.00,WeatherDisplay:10.31,2013-05-05 14:40:00,
2013-05-05 10:50:00,54.1,37.3,30.19,NE,40,2.0,10.0,53,0.00,BKN,BKN,0.00,WeatherDisplay:10.31,2013-05-05 14:50:00,
2013-05-05 11:00:00,55.0,37.7,30.19,NE,49,6.0,8.0,52,0.00,FEW,FEW,0.00,WeatherDisplay:10.31,2013-05-05 15:00:00,
2013-05-05 11:05:00,55.3,37.5,30.19,NE,38,2.0,6.0,51,0.00,BKN,BKN,0.00,WeatherDisplay:10.31,2013-05-05 15:05:00,
2013-05-05 11:10:00,55.4,37.6,30.18,NNE,19,0.0,9.0,51,0.00,BKN,BKN,0.00,WeatherDisplay:10.31,2013-05-05 15:10:00,
2013-05-05 11:20:00,56.6,37.6,30.18,NNE,32,3.0,8.0,49,0.00,FEW,FEW,0.00,WeatherDisplay:10.31,2013-05-05 15:20:00,
2013-05-05 11:30:00,57.6,38.0,30.18,ENE,59,5.0,12.0,48,0.00,BKN,BKN,0.00,WeatherDisplay:10.31,2013-05-05 15:30:00,
2013-05-05 11:40:00,58.4,37.7,30.18,NE,49,3.0,10.0,46,0.00,BKN,BKN,0.00,WeatherDisplay:10.31,2013-05-05 15:40:00,
2013-05-05 11:50:00,59.1,37.8,30.17,NE,50,1.0,10.0,45,0.00,CLR,CLR,0.00,WeatherDisplay:10.31,2013-05-05 15:50:00,
2013-05-05 12:00:00,59.6,37.6,30.18,NE,52,5.0,9.0,44,0.00,SCT,SCT,0.00,WeatherDisplay:10.31,2013-05-05 16:00:00,
2013-05-05 12:05:00,59.9,37.9,30.17,NNE,29,2.0,10.0,44,0.00,CLR,CLR,0.00,WeatherDisplay:10.31,2013-05-05 16:05:00,
2013-05-05 12:10:00,59.5,37.6,30.17,NE,44,5.0,7.0,44,0.00,FEW,FEW,0.00,WeatherDisplay:10.31,2013-05-05 16:10:00,
2013-05-05 12:20:00,58.9,37.0,30.16,ENE,63,5.0,8.0,44,0.00,FEW,FEW,0.00,WeatherDisplay:10.31,2013-05-05 16:20:00,
2013-05-05 12:30:00,59.2,37.3,30.16,ENE,59,3.0,7.0,44,0.00,FEW,FEW,0.00,WeatherDisplay:10.31,2013-05-05 16:30:00,
2013-05-05 12:40:00,60.5,37.9,30.16,NE,38,5.0,7.0,43,0.00,FEW,FEW,0.00,WeatherDisplay:10.31,2013-05-05 16:40:00,
2013-05-05 12:50:00,61.4,38.1,30.16,NE,41,2.0,6.0,42,0.00,FEW,FEW,0.00,WeatherDisplay:10.31,2013-05-05 16:50:00,
2013-05-05 13:00:00,62.7,38.0,30.15,NE,38,1.0,6.0,40,0.00,FEW,FEW,0.00,WeatherDisplay:10.31,2013-05-05 17:00:00,
2013-05-05 13:05:00,62.8,38.1,30.15,ENE,67,6.0,9.0,40,0.00,FEW,FEW,0.00,WeatherDisplay:10.31,2013-05-05 17:05:00,
2013-05-05 13:10:00,62.7,38.0,30.15,ENE,75,2.0,6.0,40,0.00,FEW,FEW,0.00,WeatherDisplay:10.31,2013-05-05 17:10:00,
2013-05-05 13:15:00,63.1,39.0,30.15,ENE,62,3.0,9.0,41,0.00,SCT,SCT,0.00,WeatherDisplay:10.31,2013-05-05 17:15:00,
2013-05-05 13:20:00,63.1,38.4,30.15,ENE,58,3.0,9.0,40,0.00,FEW,FEW,0.00,WeatherDisplay:10.31,2013-05-05 17:20:00,
2013-05-05 13:30:00,62.0,38.0,30.15,East,92,1.0,7.0,41,0.00,FEW,FEW,0.00,WeatherDisplay:10.31,2013-05-05 17:30:00,
2013-05-05 13:40:00,63.3,39.2,30.15,NE,48,5.0,7.0,41,0.00,FEW,FEW,0.00,WeatherDisplay:10.31,2013-05-05 17:40:00,
2013-05-05 13:50:00,65.0,39.4,30.14,NNE,28,3.0,7.0,39,0.00,FEW,FEW,0.00,WeatherDisplay:10.31,2013-05-05 17:50:00,
2013-05-05 14:00:00,65.0,38.1,30.14,ENE,77,2.0,9.0,37,0.00,FEW,FEW,0.00,WeatherDisplay:10.31,2013-05-05 18:00:00,
2013-05-05 14:05:00,64.7,37.8,30.13,ESE,114,2.0,10.0,37,0.00,FEW,FEW,0.00,WeatherDisplay:10.31,2013-05-05 18:05:00,
2013-05-05 14:10:00,65.0,38.1,30.14,East,91,3.0,7.0,37,0.00,FEW,FEW,0.00,WeatherDisplay:10.31,2013-05-05 18:10:00,
2013-05-05 14:20:00,65.7,39.4,30.13,ENE,58,5.0,9.0,38,0.00,FEW,FEW,0.00,WeatherDisplay:10.31,2013-05-05 18:20:00,
2013-05-05 14:30:00,66.3,39.9,30.13,ENE,58,1.0,5.0,38,0.00,FEW,FEW,0.00,WeatherDisplay:10.31,2013-05-05 18:30:00,
2013-05-05 14:40:00,67.7,39.7,30.13,NE,49,2.0,6.0,36,0.00,FEW,FEW,0.00,WeatherDisplay:10.31,2013-05-05 18:40:00,
2013-05-05 14:50:00,67.8,39.1,30.13,East,83,1.0,5.0,35,0.00,FEW,FEW,0.00,WeatherDisplay:10.31,2013-05-05 18:50:00,
2013-05-05 15:00:00,67.0,38.4,30.13,East,95,1.0,12.0,35,0.00,FEW,FEW,0.00,WeatherDisplay:10.31,2013-05-05 19:00:00,
2013-05-05 15:05:00,66.4,39.3,30.13,ESE,102,5.0,9.0,37,0.00,FEW,FEW,0.00,WeatherDisplay:10.31,2013-05-05 19:05:00,
2013-05-05 15:10:00,65.6,37.9,30.12,East,91,2.0,10.0,36,0.00,FEW,FEW,0.00,WeatherDisplay:10.31,2013-05-05 19:10:00,
2013-05-05 15:20:00,66.6,38.8,30.12,ENE,59,2.0,5.0,36,0.00,FEW,FEW,0.00,WeatherDisplay:10.31,2013-05-05 19:20:00,
2013-05-05 15:30:00,66.9,37.6,30.12,ENE,74,3.0,10.0,34,0.00,CLR,CLR,0.00,WeatherDisplay:10.31,2013-05-05 19:30:00,
2013-05-05 15:35:00,67.3,38.7,30.11,ENE,57,3.0,9.0,35,0.00,FEW,FEW,0.00,WeatherDisplay:10.31,2013-05-05 19:35:00,
2013-05-05 15:45:00,67.4,38.7,30.11,NE,53,1.0,9.0,35,0.00,CLR,CLR,0.00,WeatherDisplay:10.31,2013-05-05 19:45:00,
2013-05-05 15:50:00,67.9,37.7,30.11,NE,45,1.0,6.0,33,0.00,CLR,CLR,0.00,WeatherDisplay:10.31,2013-05-05 19:50:00,
2013-05-05 16:00:00,66.0,37.6,30.11,East,83,3.0,10.0,35,0.00,CLR,CLR,0.00,WeatherDisplay:10.31,2013-05-05 20:00:00,
2013-05-05 16:05:00,65.6,37.9,30.11,East,91,3.0,9.0,36,0.00,CLR,CLR,0.00,WeatherDisplay:10.31,2013-05-05 20:05:00,
2013-05-05 16:10:00,65.6,39.3,30.11,East,90,1.0,6.0,38,0.00,CLR,CLR,0.00,WeatherDisplay:10.31,2013-05-05 20:10:00,
2013-05-05 16:20:00,66.0,39.0,30.10,ENE,69,2.0,9.0,37,0.00,CLR,CLR,0.00,WeatherDisplay:10.31,2013-05-05 20:20:00,
2013-05-05 16:30:00,65.9,40.2,30.10,ENE,67,2.0,10.0,39,0.00,CLR,CLR,0.00,WeatherDisplay:10.31,2013-05-05 20:30:00,
2013-05-05 16:40:00,66.8,39.7,30.09,NE,45,3.0,10.0,37,0.00,CLR,CLR,0.00,WeatherDisplay:10.31,2013-05-05 20:40:00,
2013-05-05 16:50:00,67.3,40.8,30.10,ENE,64,1.0,7.0,38,0.00,CLR,CLR,0.00,WeatherDisplay:10.31,2013-05-05 20:50:00,
2013-05-05 17:00:00,67.4,40.9,30.09,NE,47,3.0,13.0,38,0.00,CLR,CLR,0.00,WeatherDisplay:10.31,2013-05-05 21:00:00,
2013-05-05 17:05:00,67.2,40.0,30.09,NE,52,5.0,10.0,37,0.00,CLR,CLR,0.00,WeatherDisplay:10.31,2013-05-05 21:05:00,
2013-05-05 17:10:00,66.4,40.6,30.09,East,89,5.0,9.0,39,0.00,FEW,FEW,0.00,WeatherDisplay:10.31,2013-05-05 21:10:00,
2013-05-05 17:20:00,65.6,41.3,30.10,ENE,76,2.0,9.0,41,0.00,CLR,CLR,0.00,WeatherDisplay:10.31,2013-05-05 21:20:00,
2013-05-05 17:30:00,65.2,40.9,30.10,East,89,6.0,9.0,41,0.00,FEW,FEW,0.00,WeatherDisplay:10.31,2013-05-05 21:30:00,
2013-05-05 17:40:00,64.2,40.6,30.10,East,84,3.0,6.0,42,0.00,CLR,CLR,0.00,WeatherDisplay:10.31,2013-05-05 21:40:00,
2013-05-05 17:50:00,63.9,41.0,30.10,East,92,5.0,9.0,43,0.00,FEW,FEW,0.00,WeatherDisplay:10.31,2013-05-05 21:50:00,
2013-05-05 17:55:00,63.5,40.6,30.10,ESE,103,5.0,12.0,43,0.00,FEW,FEW,0.00,WeatherDisplay:10.31,2013-05-05 21:55:00,
2013-05-05 18:00:00,63.4,41.1,30.10,ESE,102,1.0,14.0,44,0.00,CLR,CLR,0.00,WeatherDisplay:10.31,2013-05-05 22:00:00,
2013-05-05 18:05:00,63.4,40.5,30.10,East,88,2.0,7.0,43,0.00,CLR,CLR,0.00,WeatherDisplay:10.31,2013-05-05 22:05:00,
2013-05-05 18:10:00,63.1,40.3,30.10,East,97,2.0,9.0,43,0.00,CLR,CLR,0.00,WeatherDisplay:10.31,2013-05-05 22:10:00,
2013-05-05 18:20:00,62.7,41.0,30.10,East,80,5.0,7.0,45,0.00,CLR,CLR,0.00,WeatherDisplay:10.31,2013-05-05 22:20:00,
2013-05-05 18:30:00,62.7,41.0,30.10,East,99,3.0,6.0,45,0.00,CLR,CLR,0.00,WeatherDisplay:10.31,2013-05-05 22:30:00,
2013-05-05 18:40:00,62.4,41.3,30.10,East,96,2.0,5.0,46,0.00,CLR,CLR,0.00,WeatherDisplay:10.31,2013-05-05 22:40:00,
2013-05-05 18:50:00,62.0,42.1,30.10,East,94,1.0,6.0,48,0.00,CLR,CLR,0.00,WeatherDisplay:10.31,2013-05-05 22:50:00,
2013-05-05 19:00:00,61.8,41.9,30.10,ENE,69,1.0,3.0,48,0.00,CLR,CLR,0.00,WeatherDisplay:10.31,2013-05-05 23:00:00,
2013-05-05 19:05:00,61.6,41.7,30.10,ENE,64,2.0,5.0,48,0.00,CLR,CLR,0.00,WeatherDisplay:10.31,2013-05-05 23:05:00,
2013-05-05 19:10:00,61.6,41.7,30.10,ENE,59,2.0,3.0,48,0.00,CLR,CLR,0.00,WeatherDisplay:10.31,2013-05-05 23:10:00,
2013-05-05 19:20:00,61.2,41.9,30.10,NE,36,2.0,3.0,49,0.00,SCT,SCT,0.00,WeatherDisplay:10.31,2013-05-05 23:20:00,
2013-05-05 19:30:00,60.4,42.2,30.10,East,95,3.0,5.0,51,0.00,SCT,SCT,0.00,WeatherDisplay:10.31,2013-05-05 23:30:00,
2013-05-05 19:40:00,59.8,42.1,30.11,ENE,75,2.0,6.0,52,0.00,OVC,OVC,0.00,WeatherDisplay:10.31,2013-05-05 23:40:00,
2013-05-05 19:50:00,59.2,42.6,30.11,ENE,70,3.0,7.0,54,0.00,BKN,BKN,0.00,WeatherDisplay:10.31,2013-05-05 23:50:00,
2013-05-05 20:00:00,59.0,42.8,30.11,ENE,71,2.0,9.0,55,0.00,FEW,FEW,0.00,WeatherDisplay:10.31,2013-05-06 00:00:00,
2013-05-05 20:05:00,58.9,43.2,30.11,ENE,75,2.0,6.0,56,0.00,OVC,OVC,0.00,WeatherDisplay:10.31,2013-05-06 00:05:00,
2013-05-05 20:10:00,58.6,42.9,30.11,ENE,70,2.0,7.0,56,0.00,OVC,OVC,0.00,WeatherDisplay:10.31,2013-05-06 00:10:00,
2013-05-05 20:20:00,58.1,42.9,30.11,East,79,2.0,6.0,57,0.00,OVC,OVC,0.00,WeatherDisplay:10.31,2013-05-06 00:20:00,
2013-05-05 20:30:00,58.0,43.3,30.11,ENE,61,1.0,3.0,58,0.00,OVC,OVC,0.00,WeatherDisplay:10.31,2013-05-06 00:30:00,
2013-05-05 20:40:00,57.6,42.9,30.11,ENE,57,2.0,6.0,58,0.00,OVC,OVC,0.00,WeatherDisplay:10.31,2013-05-06 00:40:00,
2013-05-05 20:50:00,57.3,43.5,30.11,ENE,68,1.0,3.0,60,0.00,OVC,OVC,0.00,WeatherDisplay:10.31,2013-05-06 00:50:00,
2013-05-05 21:00:00,57.0,43.2,30.11,ENE,59,2.0,5.0,60,0.00,OVC,OVC,0.00,WeatherDisplay:10.31,2013-05-06 01:00:00,
2013-05-05 21:05:00,56.9,43.6,30.11,NE,50,6.0,10.0,61,0.00,OVC,OVC,0.00,WeatherDisplay:10.31,2013-05-06 01:05:00,
2013-05-05 21:10:00,56.7,43.4,30.11,NE,48,2.0,7.0,61,0.00,OVC,OVC,0.00,WeatherDisplay:10.31,2013-05-06 01:10:00,
2013-05-05 21:20:00,56.6,44.1,30.11,ENE,69,2.0,3.0,63,0.00,OVC,OVC,0.00,WeatherDisplay:10.31,2013-05-06 01:20:00,
2013-05-05 21:30:00,56.4,44.4,30.11,NE,49,2.0,5.0,64,0.00,OVC,OVC,0.00,WeatherDisplay:10.31,2013-05-06 01:30:00,
2013-05-05 21:40:00,56.0,44.4,30.11,NE,52,3.0,7.0,65,0.00,OVC,OVC,0.00,WeatherDisplay:10.31,2013-05-06 01:40:00,
2013-05-05 21:50:00,55.7,45.3,30.11,ENE,62,3.0,6.0,68,0.00,OVC,OVC,0.00,WeatherDisplay:10.31,2013-05-06 01:50:00,
2013-05-05 21:55:00,55.7,44.5,30.11,ENE,63,2.0,5.0,66,0.00,OVC,OVC,0.00,WeatherDisplay:10.31,2013-05-06 01:55:00,
2013-05-05 22:05:00,55.6,44.8,30.11,ENE,74,3.0,6.0,67,0.00,OVC,OVC,0.00,WeatherDisplay:10.31,2013-05-06 02:05:00,
2013-05-05 22:10:00,55.3,44.5,30.11,ENE,67,2.0,7.0,67,0.00,OVC,OVC,0.00,WeatherDisplay:10.31,2013-05-06 02:10:00,
2013-05-05 22:20:00,54.8,44.8,30.12,East,87,2.0,5.0,69,0.00,OVC,OVC,0.00,WeatherDisplay:10.31,2013-05-06 02:20:00,
2013-05-05 22:30:00,54.5,44.9,30.12,East,83,2.0,5.0,70,0.00,OVC,OVC,0.00,WeatherDisplay:10.31,2013-05-06 02:30:00,
2013-05-05 22:40:00,54.2,45.0,30.12,East,86,1.0,5.0,71,0.00,OVC,OVC,0.00,WeatherDisplay:10.31,2013-05-06 02:40:00,
2013-05-05 22:50:00,53.9,45.1,30.12,East,90,2.0,5.0,72,0.00,OVC,OVC,0.00,WeatherDisplay:10.31,2013-05-06 02:50:00,
2013-05-05 23:00:00,53.6,45.2,30.12,East,90,2.0,6.0,73,0.00,OVC,OVC,0.00,WeatherDisplay:10.31,2013-05-06 03:00:00,
2013-05-05 23:05:00,53.5,45.1,30.12,East,90,2.0,3.0,73,0.00,OVC,OVC,0.00,WeatherDisplay:10.31,2013-05-06 03:05:00,
2013-05-05 23:10:00,53.3,45.2,30.12,East,90,2.0,3.0,74,0.00,OVC,OVC,0.00,WeatherDisplay:10.31,2013-05-06 03:10:00,
2013-05-05 23:20:00,53.1,45.4,30.12,East,84,2.0,6.0,75,0.00,OVC,OVC,0.00,WeatherDisplay:10.31,2013-05-06 03:20:00,
2013-05-05 23:30:00,52.8,45.1,30.12,East,87,2.0,3.0,75,0.00,OVC,OVC,0.00,WeatherDisplay:10.31,2013-05-06 03:30:00,
2013-05-05 23:40:00,52.8,45.4,30.12,East,90,1.0,7.0,76,0.00,OVC,OVC,0.00,WeatherDisplay:10.31,2013-05-06 03:40:00,
2013-05-05 23:50:00,52.6,45.2,30.12,East,79,2.0,3.0,76,0.00,OVC,OVC,0.00,WeatherDisplay:10.31,2013-05-06 03:50:00,